Voltar ao catálogo

FENGYUN 1C DEB

AtivoSSO
NORAD 35155·DEBRIS·🇨🇳 China

Lançado May 10, 1999 de Taiyuan Satellite Launch Center

Loading…

Próximas Passagens (próximas 24 horas)

TLE

AtualizadoSource: Space-Track

Época: Sep 14, 2026, 18:38 UTC

1 35155U 99025DMK 26257.77678356  .00000792  00000-0  39164-3 0  9999
2 35155  98.4981 263.3813 0025014 355.5468   4.5482 14.19903190766306

Acompanhe FENGYUN 1C DEB em tempo real com AllMySat

Download on the App Store